User: anonymous   Login
Location: Unspecified
(0.0000°N, 0.0000°E)
Time: 16:28:52
(UTC+00:00)
Language:

AUTCUBE 2 - Orbit

View from above orbital plane
View from above orbital plane
View from above satellite
View from above satellite

Ground track
Ground track

The orbit data is extracted from the following two-line orbital elements,

1 43679U 18084J   21333.61219663  .00000541  00000-0  58109-4 0  9993
2 43679  97.9493 101.4580 0008161 225.5997 134.4554 14.92732693168126
Epoch (UTC): 29 November 2021 14:41:33
Eccentricity: 0.0008161
inclination: 97.9493°
perigee height: 584 km
apogee height: 595 km
right ascension of ascending node: 101.4580°
argument of perigee: 225.5997°
revolutions per day: 14.92732693
mean anomaly at epoch: 134.4554°
orbit number at epoch: 16812

The dashed part of the orbit path shows where the satellite is in the earth's shadow,  

DLR